Location: Atherton
(17.2661°S, 145.4859°E)
Time: 02:38:10
(UTC+10:00)

Hubble Space Telescope - Visible Passes

Search period start: 08 February 2026 00:00
Search period end: 18 February 2026 00:00
Orbit: 478 x 480 km, 28.5° (Epoch: 6 February)

Date Brightness Start Highest point End Pass type
(mag) Time Alt. Az. Time Alt. Az. Time Alt. Az.
8 Feb 0.6 04:48:49 36° SW 04:50:15 74° SSE 04:54:03 10° ENE visible
8 Feb 1.9 19:56:20 10° NNW 19:59:06 22° NNE 19:59:06 22° NNE visible
9 Feb 1.6 04:21:14 42° E 04:21:14 42° E 04:23:54 10° ENE visible
9 Feb 1.9 19:26:10 10° NNW 19:29:08 22° NNE 19:31:34 13° ENE visible
9 Feb 3.3 21:05:03 10° WNW 21:05:44 15° WNW 21:05:44 15° WNW visible
10 Feb 2.1 05:27:55 15° WNW 05:29:36 19° NNW 05:32:22 10° NNE visible
10 Feb 1.1 20:34:53 10° WNW 20:38:05 56° WSW 20:38:05 56° WSW visible
11 Feb 2.4 05:00:27 17° N 05:00:27 17° N 05:02:11 10° NNE visible
11 Feb 0.8 20:04:41 10° WNW 20:08:27 65° SSW 20:10:16 28° SE visible
12 Feb 0.9 19:34:30 10° WNW 19:38:15 64° SSW 19:42:01 10° ESE visible
12 Feb 3.6 21:15:26 10° WSW 21:16:24 15° SW 21:16:24 15° SW visible
13 Feb 2.7 20:45:13 10° WSW 20:48:08 21° SSW 20:48:14 21° S visible
14 Feb 2.8 20:15:00 10° WSW 20:17:54 20° SSW 20:19:56 14° SSE visible
15 Feb 2.8 19:44:45 10° WSW 19:47:39 20° SSW 19:50:34 10° SE visible
16 Feb 2.8 19:14:29 10° WSW 19:17:23 20° SSW 19:20:18 10° SE visible
16 Feb 3.3 20:55:41 10° SW 20:57:03 14° SSW 20:57:03 14° SSW visible
17 Feb 3.0 20:25:24 10° SW 20:27:36 15° S 20:28:26 14° SSE visible
